KA5FVT Weather Reports


Display with metric or nautical units.
time (UTC)temp
F
wind
direction
speed
MPH
gust
MPH
rain 1hr
in
rain 24hr
in
rain mn
in
humidity
%
barometer
mb
20260905042456 81 188 0.0 0.0 0.00 0.01 0.00 86 1012.9
20260905041956 81 188 0.0 0.0 0.00 0.01 0.00 86 1012.8
20260905041456 81 188 0.0 0.0 0.00 0.01 0.00 86 1012.9
20260905040956 81 188 0.0 0.0 0.00 0.01 0.00 86 1012.9
20260905040456 81 188 0.0 0.0 0.00 0.01 0.00 86 1013.0
20260905035956 81 188 0.0 0.0 0.00 0.01 0.00 85 1013.1
20260905035456 81 188 0.0 0.0 0.00 0.01 0.00 85 1013.0
20260905034956 81 188 0.0 0.0 0.00 0.01 0.00 85 1013.0
20260905034456 81 188 0.0 0.0 0.00 0.01 0.00 85 1013.1
20260905033956 81 188 0.0 0.0 0.00 0.01 0.00 85 1013.2
20260905033456 81 188 0.0 0.0 0.00 0.01 0.00 84 1013.1
20260905032959 81 188 0.0 0.0 0.00 0.01 0.00 84 1013.1
20260905032456 81 188 0.0 0.0 0.00 0.01 0.00 84 1013.2
20260905031956 81 188 0.0 0.0 0.00 0.01 0.00 84 1013.3
20260905031459 81 188 0.0 0.0 0.00 0.01 0.00 83 1013.3
20260905030956 81 188 0.0 0.0 0.00 0.01 0.00 83 1013.1
20260905030456 81 188 0.0 0.0 0.00 0.01 0.00 83 1013.2
20260905025956 81 188 0.0 0.0 0.00 0.01 0.00 83 1013.1
20260905025456 81 188 0.0 0.0 0.00 0.01 0.00 82 1013.0
20260905024956 81 188 0.0 0.0 0.00 0.01 0.00 81 1013.0
20260905024456 81 188 0.0 0.0 0.00 0.01 0.00 81 1013.0
20260905023956 81 188 0.0 0.0 0.00 0.01 0.00 80 1012.9
20260905023456 81 188 0.0 0.0 0.00 0.01 0.00 80 1012.8
20260905022959 81 188 0.0 0.0 0.00 0.01 0.00 80 1012.9
20260905022456 82 188 0.0 0.0 0.00 0.01 0.00 79 1012.9
20260905021956 82 188 0.0 0.0 0.00 0.01 0.00 79 1012.8
20260905021456 82 188 0.0 0.0 0.00 0.01 0.00 78 1012.6
20260905020957 82 188 0.0 0.0 0.00 0.01 0.00 78 1012.7
20260905020456 82 188 0.0 0.0 0.00 0.01 0.00 77 1012.5
20260905015956 82 188 0.0 0.0 0.00 0.01 0.00 76 1012.5
20260905015456 82 188 0.0 0.0 0.00 0.01 0.00 76 1012.4
20260905014956 83 188 0.0 0.0 0.00 0.01 0.00 76 1012.5
20260905014456 83 188 0.0 0.0 0.00 0.01 0.00 75 1012.4
20260905013956 83 188 0.0 0.0 0.00 0.01 0.00 75 1012.3
20260905013456 83 188 0.0 0.0 0.00 0.01 0.00 74 1012.3
20260905012956 83 188 0.0 0.0 0.00 0.01 0.00 73 1012.3
20260905012456 84 188 0.0 1.0 0.00 0.01 0.00 73 1012.3
20260905011956 84 188 0.0 1.0 0.00 0.01 0.00 72 1012.4
20260905011456 84 188 0.0 2.0 0.00 0.01 0.00 73 1012.3
20260905010956 85 188 0.0 2.0 0.00 0.01 0.00 75 1012.4
20260905010456 85 188 0.0 2.0 0.00 0.01 0.00 76 1012.5
20260905005956 85 188 0.0 1.0 0.00 0.01 0.00 75 1012.3
20260905005456 86 188 1.0 1.0 0.00 0.01 0.00 74 1012.4
20260905004959 86 188 1.0 1.0 0.00 0.01 0.00 73 1012.1
20260905004456 86 188 0.0 0.0 0.00 0.01 0.00 72 1011.9
20260905003956 86 188 0.0 1.0 0.00 0.01 0.00 72 1012.0
20260905003456 86 188 1.0 2.0 0.00 0.01 0.00 70 1011.8
20260905002959 87 188 1.0 1.0 0.00 0.01 0.00 71 1011.6
20260905002456 87 188 0.0 0.0 0.00 0.01 0.00 71 1011.6
20260905001955 87 188 0.0 0.0 0.00 0.01 0.00 73 1011.6
20260905001455 87 188 0.0 1.0 0.00 0.01 0.00 71 1011.6
20260905000956 87 188 0.0 1.0 0.00 0.01 0.00 71 1011.5
20260905000455 87 165 0.0 0.0 0.00 0.01 0.00 71 1011.5
20260904235955 87 165 0.0 0.0 0.00 0.01 0.00 70 1011.6
20260904235456 88 165 0.0 0.0 0.00 0.01 0.00 69 1011.7
20260904234957 88 165 0.0 0.0 0.00 0.01 0.00 69 1011.8
20260904234456 88 165 0.0 1.0 0.00 0.01 0.00 69 1011.7
20260904233956 88 165 0.0 1.0 0.00 0.01 0.00 68 1011.7
20260904233456 88 165 0.0 1.0 0.00 0.01 0.00 68 1011.7
20260904232956 88 165 0.0 2.0 0.00 0.01 0.00 68 1011.8
20260904232455 89 165 1.0 2.0 0.00 0.01 0.00 70 1011.8
20260904231955 89 165 0.0 0.0 0.00 0.01 0.00 69 1011.7
20260904231456 88 165 0.0 0.0 0.00 0.01 0.00 69 1011.6
20260904230956 88 165 0.0 1.0 0.00 0.01 0.00 71 1011.7
20260904230455 87 165 0.0 0.0 0.00 0.01 0.00 72 1011.6
20260904225955 87 165 0.0 1.0 0.00 0.01 0.00 71 1011.8
20260904225456 87 165 0.0 0.0 0.00 0.01 0.00 72 1011.6
20260904224956 87 165 0.0 1.0 0.00 0.01 0.00 71 1011.8
20260904224456 87 165 0.0 2.0 0.00 0.01 0.00 70 1011.7
20260904223956 88 162 0.0 1.0 0.00 0.01 0.00 69 1011.7
20260904223459 88 163 0.0 0.0 0.00 0.01 0.00 70 1011.8
20260904222955 89 163 0.0 1.0 0.00 0.01 0.00 68 1011.8
20260904222456 89 163 0.0 4.0 0.00 0.01 0.00 67 1011.8
20260904221959 90 157 0.0 5.0 0.00 0.01 0.00 66 1012.0
20260904221455 92 168 2.0 4.0 0.00 0.01 0.00 65 1011.9
20260904220956 92 165 2.0 2.0 0.00 0.01 0.00 63 1012.0
20260904220455 92 284 0.0 2.0 0.00 0.01 0.00 62 1012.0
20260904215956 92 289 2.0 2.0 0.00 0.01 0.00 63 1012.0
20260904215456 91 279 1.0 1.0 0.00 0.01 0.00 64 1012.1
20260904214956 91 282 0.0 1.0 0.00 0.01 0.00 65 1011.9
20260904214455 91 282 0.0 1.0 0.00 0.01 0.00 63 1011.7
20260904213955 91 282 0.0 1.0 0.00 0.01 0.00 64 1011.9
20260904213456 91 282 0.0 1.0 0.00 0.01 0.00 63 1011.9
20260904212956 91 282 0.0 0.0 0.00 0.01 0.00 64 1011.9
20260904212455 91 281 0.0 0.0 0.00 0.01 0.00 67 1012.0
20260904211955 91 282 0.0 1.0 0.00 0.01 0.00 63 1012.0
20260904211459 91 282 0.0 1.0 0.00 0.01 0.00 67 1012.2
20260904210956 91 282 0.0 0.0 0.00 0.01 0.00 66 1012.3
20260904210456 91 282 0.0 0.0 0.00 0.01 0.00 65 1012.3
20260904205957 91 282 0.0 1.0 0.00 0.01 0.00 64 1012.4
20260904205459 91 282 0.0 1.0 0.00 0.01 0.00 65 1012.6
20260904204959 91 282 0.0 2.0 0.00 0.01 0.00 66 1012.7
20260904204459 91 282 2.0 2.0 0.00 0.01 0.00 67 1012.7
20260904203956 90 283 0.0 1.0 0.00 0.02 0.00 67 1012.8
20260904203459 90 282 0.0 2.0 0.00 0.02 0.00 69 1012.9
20260904202956 90 298 1.0 1.0 0.00 0.02 0.00 68 1012.9
20260904202456 90 286 1.0 2.0 0.00 0.02 0.00 69 1012.9
20260904201956 90 282 2.0 3.0 0.00 0.02 0.00 69 1013.0
20260904201455 90 283 2.0 2.0 0.00 0.03 0.00 69 1012.9
20260904200959 89 284 0.0 1.0 0.00 0.03 0.00 71 1013.0
20260904200458 89 284 2.0 3.0 0.00 0.03 0.00 71 1013.1
20260904195959 88 208 0.0 1.0 0.00 0.04 0.00 74 1013.1
20260904195455 87 208 0.0 2.0 0.00 0.04 0.00 73 1013.3
20260904194956 87 208 0.0 0.0 0.00 0.04 0.00 76 1013.2
20260904194456 85 208 0.0 0.0 0.00 0.04 0.00 77 1013.2
20260904193956 84 158 0.0 1.0 0.00 0.04 0.00 82 1013.3
20260904193456 83 158 0.0 1.0 0.00 0.04 0.00 82 1013.3
20260904192955 82 158 0.0 0.0 0.00 0.04 0.00 82 1013.3
20260904192455 82 158 0.0 0.0 0.00 0.04 0.00 83 1013.4
20260904191956 82 158 0.0 0.0 0.00 0.04 0.00 83 1013.6
20260904191456 81 158 0.0 0.0 0.00 0.04 0.00 83 1013.8
20260904190955 81 158 0.0 1.0 0.00 0.05 0.00 83 1013.8
20260904190459 81 158 0.0 2.0 0.00 0.06 0.00 84 1014.0
20260904185956 80 5 0.0 0.0 0.00 0.08 0.00 86 1014.1
20260904185458 80 5 0.0 0.0 0.00 0.10 0.00 86 1014.3
20260904184956 80 5 0.0 0.0 0.00 0.11 0.00 85 1014.3
20260904184455 80 5 0.0 0.0 0.00 0.11 0.00 84 1014.5
20260904183957 80 5 0.0 0.0 0.00 0.11 0.00 84 1014.6
20260904183456 79 5 0.0 0.0 0.00 0.11 0.00 84 1014.4
20260904182955 79 5 0.0 0.0 0.00 0.11 0.00 83 1014.4
20260904182456 79 5 0.0 0.0 0.00 0.11 0.00 83 1014.7
20260904181955 79 5 0.0 0.0 0.00 0.13 0.00 81 1015.0
20260904181456 79 5 0.0 1.0 0.00 0.13 0.00 81 1015.1
20260904180956 79 5 0.0 0.0 0.00 0.13 0.00 80 1015.0
20260904180456 79 5 0.0 1.0 0.00 0.13 0.00 79 1015.1
20260904175959 79 5 0.0 3.0 0.00 0.13 0.00 78 1015.0
20260904175456 79 278 0.0 2.0 0.00 0.15 0.00 77 1014.8
20260904174956 80 278 1.0 2.0 0.00 0.15 0.00 77 1015.0
20260904174459 80 273 1.0 5.0 0.00 0.15 0.00 76 1015.1
20260904173955 81 279 2.0 3.0 0.00 0.15 0.00 74 1015.1
20260904173456 83 277 2.0 6.0 0.00 0.15 0.00 71 1015.0
20260904172956 86 306 1.0 8.0 0.00 0.15 0.00 70 1015.2
20260904172456 88 277 2.0 5.0 0.00 0.15 0.00 71 1015.3
20260904171959 89 169 0.0 2.0 0.00 0.15 0.00 77 1015.0
20260904171455 89 169 1.0 1.0 0.00 0.15 0.00 77 1014.9
20260904170956 89 169 0.0 0.0 0.00 0.15 0.00 78 1015.1
20260904170456 89 169 0.0 1.0 0.00 0.15 0.00 77 1014.9
20260904165956 88 169 0.0 1.0 0.00 0.15 0.00 78 1014.7
20260904165456 89 169 0.0 2.0 0.00 0.15 0.00 78 1014.7
20260904164956 89 169 0.0 2.0 0.00 0.15 0.00 77 1014.7
20260904164456 89 171 0.0 1.0 0.00 0.15 0.00 78 1014.8
20260904163955 89 167 1.0 1.0 0.00 0.15 0.00 77 1014.7
20260904163456 89 167 0.0 1.0 0.00 0.15 0.00 78 1014.7
20260904162955 89 168 0.0 1.0 0.00 0.15 0.00 77 1014.5
20260904162455 88 169 0.0 1.0 0.00 0.15 0.00 77 1014.5
20260904161956 88 171 0.0 2.0 0.00 0.15 0.00 78 1014.4
20260904161455 88 171 0.0 1.0 0.00 0.15 0.00 80 1014.2
20260904160955 88 171 0.0 4.0 0.00 0.15 0.00 78 1014.3
20260904160455 88 171 2.0 4.0 0.00 0.15 0.00 77 1014.2
20260904155956 87 227 0.0 0.0 0.00 0.15 0.00 79 1014.3
20260904155456 87 227 0.0 0.0 0.00 0.15 0.00 77 1014.2
20260904154958 87 227 0.0 0.0 0.00 0.15 0.00 79 1014.1
20260904154456 87 227 0.0 0.0 0.00 0.15 0.00 82 1014.0
20260904153955 86 227 0.0 0.0 0.00 0.15 0.00 80 1014.1
20260904153459 86 227 0.0 0.0 0.00 0.15 0.00 81 1014.1
20260904152955 86 227 0.0 0.0 0.00 0.15 0.00 83 1014.2
20260904152456 85 227 0.0 0.0 0.00 0.15 0.00 87 1014.0
20260904151956 85 227 0.0 0.0 0.00 0.15 0.00 87 1014.0
20260904151459 85 227 0.0 0.0 0.00 0.15 0.00 88 1014.0
20260904150956 84 228 0.0 0.0 0.00 0.15 0.00 87 1014.1
20260904150456 84 228 0.0 0.0 0.00 0.15 0.00 89 1014.1
20260904145956 84 228 0.0 0.0 0.00 0.15 0.00 89 1014.0
20260904145455 83 228 0.0 0.0 0.00 0.15 0.00 90 1014.0
20260904144956 83 228 0.0 0.0 0.00 0.15 0.00 90 1014.1
20260904144456 83 229 0.0 0.0 0.00 0.15 0.00 91 1014.2
20260904143955 83 229 0.0 0.0 0.00 0.15 0.00 91 1014.1
20260904143456 83 229 0.0 0.0 0.00 0.15 0.00 92 1014.0
20260904142955 82 229 0.0 0.0 0.00 0.15 0.00 92 1014.0
20260904142455 82 229 0.0 0.0 0.00 0.15 0.00 92 1013.9
20260904141955 82 229 0.0 0.0 0.00 0.15 0.00 93 1013.9
20260904141456 81 229 0.0 0.0 0.00 0.15 0.00 94 1013.9
20260904140955 81 229 0.0 0.0 0.00 0.15 0.00 95 1014.0
20260904140456 81 229 0.0 0.0 0.00 0.15 0.00 95 1014.0
20260904135956 80 229 0.0 0.0 0.00 0.15 0.00 95 1014.0
20260904135456 80 229 0.0 0.0 0.00 0.15 0.00 96 1013.9
20260904134955 80 229 0.0 0.0 0.00 0.15 0.00 96 1013.8
20260904134459 80 229 0.0 0.0 0.00 0.15 0.00 96 1013.7
20260904133956 80 229 0.0 0.0 0.00 0.15 0.00 96 1013.9
20260904133455 80 229 0.0 0.0 0.00 0.15 0.00 96 1013.9
20260904132959 79 229 0.0 0.0 0.00 0.15 0.00 96 1013.8
20260904132456 79 229 0.0 0.0 0.00 0.15 0.00 96 1013.7
20260904131958 79 229 0.0 0.0 0.00 0.15 0.00 96 1013.7
20260904131455 79 229 0.0 0.0 0.00 0.15 0.00 96 1013.7
20260904130958 79 229 0.0 0.0 0.00 0.15 0.00 96 1013.6
20260904130455 79 229 0.0 0.0 0.00 0.15 0.00 95 1013.7
20260904125956 79 229 0.0 0.0 0.00 0.15 0.00 95 1013.6
20260904125456 79 229 0.0 0.0 0.00 0.15 0.00 95 1013.6
20260904124956 79 229 0.0 0.0 0.00 0.15 0.00 95 1013.3
20260904124455 79 229 0.0 0.0 0.00 0.15 0.00 95 1013.4
20260904123959 79 229 0.0 0.0 0.00 0.15 0.00 95 1013.2
20260904123456 79 229 0.0 0.0 0.00 0.15 0.00 95 1013.2
20260904122959 79 229 0.0 0.0 0.00 0.15 0.00 95 1013.2
20260904122455 79 229 0.0 0.0 0.00 0.15 0.00 95 1013.1
20260904121956 79 229 0.0 0.0 0.00 0.15 0.00 95 1013.0
20260904121456 79 229 0.0 0.0 0.00 0.15 0.00 95 1013.0
20260904120955 79 229 0.0 0.0 0.00 0.15 0.00 95 1013.0
20260904120456 79 229 0.0 0.0 0.00 0.15 0.00 95 1012.9
20260904115955 79 229 0.0 0.0 0.00 0.15 0.00 95 1012.8
20260904115455 79 229 0.0 0.0 0.00 0.15 0.00 95 1012.9
20260904114956 79 229 0.0 0.0 0.00 0.15 0.00 95 1012.9
20260904114456 80 229 0.0 0.0 0.00 0.15 0.00 95 1012.8
20260904113956 79 229 0.0 0.0 0.00 0.15 0.00 95 1012.7
20260904113455 79 229 0.0 0.0 0.00 0.15 0.00 95 1012.7
20260904112959 79 229 0.0 0.0 0.00 0.15 0.00 95 1012.8
20260904112455 79 229 0.0 0.0 0.00 0.15 0.00 95 1012.8
20260904111956 80 229 0.0 0.0 0.00 0.15 0.00 95 1012.8
20260904111456 80 229 0.0 0.0 0.00 0.15 0.00 95 1012.8
20260904110956 80 229 0.0 0.0 0.01 0.15 0.00 95 1012.8
20260904110456 80 229 0.0 0.0 0.01 0.15 0.00 95 1012.8
20260904105955 80 229 0.0 0.0 0.01 0.15 0.00 95 1012.7
20260904105455 80 229 0.0 0.0 0.01 0.15 0.00 95 1012.7
20260904104955 80 229 0.0 0.0 0.01 0.15 0.00 95 1012.7
20260904104458 80 229 0.0 0.0 0.01 0.15 0.00 95 1012.6
20260904103955 80 229 0.0 0.0 0.01 0.15 0.00 95 1012.4
20260904103456 80 229 0.0 0.0 0.01 0.15 0.00 95 1012.6
20260904102955 80 229 0.0 0.0 0.01 0.15 0.00 95 1012.4
20260904102456 80 229 0.0 0.0 0.01 0.15 0.00 95 1012.4
20260904101956 80 229 0.0 0.0 0.01 0.15 0.00 95 1012.5
20260904101455 80 229 0.0 0.0 0.01 0.15 0.00 95 1012.3
20260904100955 80 229 0.0 0.0 0.00 0.14 0.00 94 1012.3
20260904100455 80 229 0.0 0.0 0.00 0.14 0.00 94 1012.3
20260904095956 80 229 0.0 0.0 0.00 0.14 0.00 94 1012.3
20260904095456 80 229 0.0 0.0 0.00 0.14 0.00 94 1012.3
20260904094956 80 229 0.0 0.0 0.00 0.14 0.00 95 1012.3
20260904094455 80 229 0.0 0.0 0.00 0.14 0.00 94 1012.4
20260904093958 80 229 0.0 0.0 0.00 0.14 0.00 94 1012.4
20260904093458 80 229 0.0 0.0 0.00 0.14 0.00 94 1012.3
20260904092956 80 229 0.0 0.0 0.00 0.14 0.00 94 1012.2
20260904092456 80 229 0.0 0.0 0.00 0.14 0.00 94 1012.0
20260904091956 80 229 0.0 0.0 0.00 0.14 0.00 94 1012.1
20260904091456 80 229 0.0 0.0 0.00 0.14 0.00 94 1012.2
20260904090955 80 229 0.0 0.0 0.00 0.14 0.00 94 1012.2
20260904090458 80 229 0.0 0.0 0.00 0.14 0.00 94 1012.1
20260904085955 80 229 0.0 0.0 0.00 0.14 0.00 94 1012.3
20260904085455 80 229 0.0 0.0 0.00 0.14 0.00 94 1012.2
20260904084959 80 229 0.0 0.0 0.00 0.14 0.00 94 1012.4
20260904084455 80 229 0.0 0.0 0.00 0.14 0.00 94 1012.3
20260904083955 80 229 0.0 0.0 0.00 0.14 0.00 94 1012.3
20260904083455 80 229 0.0 0.0 0.00 0.14 0.00 94 1012.3
20260904082958 80 229 0.0 0.0 0.00 0.14 0.00 94 1012.3
20260904082455 80 229 0.0 0.0 0.00 0.14 0.00 94 1012.3
20260904081956 80 229 0.0 0.0 0.00 0.14 0.00 94 1012.2
20260904081456 80 229 0.0 0.0 0.00 0.14 0.00 94 1012.3
20260904080956 80 229 0.0 0.0 0.00 0.14 0.00 94 1012.3
20260904080455 80 229 0.0 0.0 0.00 0.14 0.00 94 1012.3
20260904075956 80 229 0.0 0.0 0.00 0.14 0.00 94 1012.3
20260904075455 80 229 0.0 0.0 0.00 0.14 0.00 94 1012.4
20260904074956 80 229 0.0 0.0 0.00 0.14 0.00 94 1012.6
20260904074455 80 229 0.0 0.0 0.00 0.14 0.00 94 1012.6
20260904073956 80 229 0.0 0.0 0.00 0.14 0.00 94 1012.5
20260904073456 80 229 0.0 0.0 0.00 0.14 0.00 94 1012.5
20260904072955 80 229 0.0 0.0 0.00 0.14 0.00 94 1012.5
20260904072455 80 229 0.0 0.0 0.00 0.14 0.00 93 1012.4
20260904071956 80 229 0.0 0.0 0.00 0.14 0.00 93 1012.4
20260904071455 80 229 0.0 0.0 0.00 0.14 0.00 93 1012.5
20260904070955 80 229 0.0 0.0 0.00 0.14 0.00 93 1012.5
20260904070456 80 229 0.0 0.0 0.00 0.14 0.00 93 1012.4
20260904065955 80 229 0.0 0.0 0.00 0.14 0.00 94 1012.4
20260904065455 80 229 0.0 0.0 0.00 0.14 0.00 94 1012.6
20260904064956 80 229 0.0 0.0 0.00 0.14 0.00 93 1012.7
20260904064455 80 229 0.0 0.0 0.00 0.14 0.00 94 1012.6
20260904063955 80 229 0.0 0.0 0.00 0.14 0.00 94 1012.5
20260904063456 80 229 0.0 0.0 0.00 0.14 0.00 94 1012.6
20260904062956 80 229 0.0 0.0 0.00 0.14 0.00 93 1012.7
20260904062455 80 229 0.0 0.0 0.00 0.14 0.00 93 1012.7
20260904061955 80 229 0.0 0.0 0.00 0.14 0.00 93 1012.6
20260904061459 80 229 0.0 0.0 0.00 0.14 0.00 93 1012.9
20260904060955 80 229 0.0 0.0 0.00 0.14 0.00 93 1012.8
20260904060455 80 229 0.0 0.0 0.00 0.14 0.00 93 1012.8
20260904055955 80 229 0.0 0.0 0.00 0.14 0.00 93 1012.8
20260904055456 80 229 0.0 0.0 0.00 0.14 0.00 93 1012.8
20260904054955 80 229 0.0 0.0 0.00 0.14 0.00 93 1012.8
20260904054455 80 229 0.0 0.0 0.00 0.14 0.00 93 1012.8
20260904053955 80 229 0.0 0.0 0.00 0.14 0.00 93 1012.8
20260904053455 80 229 0.0 0.0 0.00 0.14 0.00 93 1012.8
20260904052955 80 229 0.0 0.0 0.00 0.14 0.00 93 1012.8
20260904052455 80 229 0.0 0.0 0.00 0.14 0.00 93 1012.7
20260904051956 80 229 0.0 0.0 0.00 0.14 0.00 93 1012.6
20260904051456 80 229 0.0 0.0 0.00 0.14 0.00 93 1012.5
20260904050955 80 229 0.0 0.0 0.00 0.14 0.00 93 1012.6
20260904050455 80 229 0.0 0.0 0.00 0.14 0.00 93 1012.5
20260904045956 80 229 0.0 0.0 0.00 0.14 0.00 93 1012.6
20260904045455 80 229 0.0 0.0 0.00 0.14 0.00 93 1012.7
20260904044956 80 229 0.0 0.0 0.00 0.14 0.00 93 1012.5
20260904044456 80 229 0.0 0.0 0.00 0.14 0.00 93 1012.4
20260904043955 80 229 0.0 0.0 0.00 0.14 0.00 93 1012.7
20260904043458 80 229 0.0 0.0 0.00 0.14 0.00 93 1012.5
20260904042959 80 229 0.0 0.0 0.00 0.14 0.00 93 1012.6